Oujda, Morocco

6:59 AM WEST on August 21, 2017 (GMT +0100)
Oujda

Weather History for GMFO - October, 2013

Change the Weather History Date:

Wednesday, October 16, 2013

  Actual Average Record
Temperature  
Mean Temperature 73 °F -  
Max Temperature 90 °F 71 °F 91 °F (2002)
Min Temperature 56 °F 49 °F 32 °F (1999)
Cooling Degree Days 8    
Growing Degree Days 23 (Base 50)    
Moisture  
Dew Point 46 °F    
Average Humidity 34    
Maximum Humidity 55    
Minimum Humidity 16    
Precipitation  
Precipitation 0.00 in 0.05 in - ()
Sea Level Pressure  
Sea Level Pressure 30.12 in    
Wind  
Wind Speed 4 mph ()    
Max Wind Speed 15 mph    
Max Gust Speed -    
Visibility 9.1 miles    
Events      
Averages and records for this station are not official NWS values.
T = Trace of Precipitation, MM = Missing Value Source: Averaged Metar Reports

Daily Weather History Graph

Daily Weather History Graph

Search for Another Location

Airport or City:

Trip Planner

Search our weather history database for the weather conditions in past years. The results will help you decide how hot, cold, wet, or windy it might be!

Date:

Astronomy

Oct. 16, 2013 Rise Set
Actual Time 7:14 AM WEST 6:31 PM WEST
Civil Twilight 6:48 AM WEST 6:57 PM WEST
Nautical Twilight 6:19 AM WEST 7:26 PM WEST
Astronomical Twilight 5:50 AM WEST 7:55 PM WEST
Moon 4:58 PM WEST (10/16) 4:32 AM WEST (10/16)
Length of Visible Light 12h 08m
Length of Day
11h 17m
Waxing Gibbous, 93% of the Moon is Illuminated
Oct 16
Waxing Gibbous
Oct 19
Full
Oct 27
Last Quarter
Nov 3
New
Nov 10
First Quarter

Hourly Weather History & Observations

Time (WEST) Temp. Dew Point Humidity Pressure Visibility Wind Dir Wind Speed Gust Speed Precip Events Conditions
12:00 AM 60.8 °F 42.8 °F 52% 30.18 in 6.2 mi SW 4.6 mph - N/A   Scattered Clouds
1:00 AM 61 °F 44 °F 42% 30.16 in 12 mi SW 3.5 mph - -   Scattered Clouds
1:00 AM 60.8 °F 44.6 °F 55% 30.18 in 6.2 mi SW 3.5 mph - N/A   Scattered Clouds
4:00 AM 58 °F 41 °F 42% 30.14 in 12 mi West 3.5 mph - -   Scattered Clouds
4:00 AM 59.0 °F 41.0 °F 51% 30.15 in - West 3.5 mph - N/A   Clear
7:00 AM 58 °F 42 °F 43% 30.15 in 12 mi ENE 1.2 mph - -   Clear
9:00 AM 69.8 °F 46.4 °F 43% 30.18 in 5.0 mi Variable 2.3 mph - N/A   Unknown
10:00 AM 76 °F 47 °F 25% 30.12 in 12 mi Calm Calm - -   Clear
10:00 AM 75.2 °F 46.4 °F 36% 30.18 in 5.0 mi Calm Calm - N/A   Unknown
11:00 AM 80.6 °F 46.4 °F 30% 30.15 in - Variable 2.3 mph - N/A   Clear
12:00 PM 86.0 °F 46.4 °F 25% 30.15 in - North 3.5 mph - N/A   Clear
1:00 PM 88 °F 48 °F 16% 30.04 in 12 mi North 6.9 mph - -   Clear
1:00 PM 87.8 °F 48.2 °F 25% 30.12 in - North 6.9 mph - N/A   Clear
2:00 PM 89.6 °F 48.2 °F 24% 30.12 in - North 8.1 mph - N/A   Clear
3:00 PM 89.6 °F 50.0 °F 26% 30.09 in - North 10.4 mph - N/A   Clear
4:00 PM 89 °F 49 °F 16% 29.99 in 6 mi North 15.0 mph - -   Clear
4:00 PM 87.8 °F 50.0 °F 27% 30.09 in - North 15.0 mph - N/A   Clear
5:00 PM 86.0 °F 48.2 °F 27% 30.09 in 6.2 mi North 15.0 mph - N/A   Unknown
6:00 PM 82.4 °F 48.2 °F 30% 30.09 in - North 11.5 mph - N/A   Clear
7:00 PM - 51 °F % 30.02 in 12 mi Calm Calm - -   Clear
10:00 PM 68 °F 44 °F 30% 30.09 in 12 mi WSW 4.6 mph - -   Clear
10:00 PM 68.0 °F 44.6 °F 43% 30.12 in - WSW 4.6 mph - N/A   Clear